1488110400.01,8417,9.06,73180.0,-0.43,-8.03,-6.39,0,*5A
1488110401.22,8418,9.0,73188.3,-0.43,-7.83,-6.13,0,*5A
1488110402.49,8419,9.06,73184.3,-0.43,-7.57,-5.89,0,*52
1488110403.74,8420,9.06,73172.8,-0.43,-7.91,-6.27,0,*55
1488110404.98,8421,9.06,73170.8,-0.43,-7.73,-6.09,0,*54
1488110406.21,8422,9.06,73184.8,-0.43,-7.69,-6.01,0,*54
1488110407.44,8423,9.06,73190.5,-0.43,-7.61,-6.13,0,*5E
1488110408.67,8424,9.0,73186.3,-0.39,-7.69,-6.09,0,*57
1488110409.9,8425,9.06,73204.8,-0.43,-7.99,-6.43,0,*5A
1488110411.14,8426,9.06,73212.8,-0.43,-8.11,-6.51,0,*55
1488110412.33,8427,9.06,73200.3,-0.45,-8.21,-6.47,0,*56
1488110413.51,8428,9.06,73200.3,-0.45,-8.17,-6.43,0,*58
1488110414.74,8429,9.0,73194.5,-0.45,-8.03,-6.23,0,*5A
1488110415.95,8430,9.06,73204.0,-0.45,-7.95,-6.13,0,*51
1488110417.15,8431,9.06,73208.3,-0.45,-7.95,-6.05,0,*57
1488110418.36,8432,9.06,73214.8,-0.45,-8.17,-6.23,0,*55
1488110419.57,8433,9.0,73202.5,-0.43,-8.29,-6.43,0,*59
1488110420.78,8434,9.06,73204.3,-0.43,-8.25,-6.31,0,*57
1488110422.02,8435,9.06,73198.8,-0.43,-8.17,-6.19,0,*5D
1488110423.26,8436,9.06,73184.5,-0.45,-7.95,-5.93,0,*5C
1488110424.49,8437,9.06,73164.0,-0.45,-7.95,-5.93,0,*5D
1488110425.73,8438,9.06,73128.5,-0.45,-7.95,-5.89,0,*59
1488110426.96,8439,9.06,73122.5,-0.45,-7.39,-5.31,0,*5D
1488110428.22,8440,9.06,73134.0,-0.43,-7.05,-5.11,0,*58
1488110429.43,8441,9.06,73164.0,-0.43,-7.23,-5.39,0,*57
1488110430.69,8442,9.06,73162.5,-0.39,-7.77,-5.93,0,*58
1488110431.95,8443,9.06,73142.8,-0.43,-7.99,-6.27,0,*58
1488110433.2,8444,9.06,73158.0,-0.43,-8.03,-6.27,0,*53
1488110434.46,8445,9.0,73178.3,-0.43,-7.91,-6.27,0,*56
1488110435.69,8446,9.06,73190.5,-0.43,-7.91,-6.39,0,*5A
1488110436.9,8447,9.0,73186.0,-0.45,-7.91,-6.43,0,*50
1488110438.08,8448,9.06,73200.8,-0.45,-7.87,-6.47,0,*5C
1488110439.32,8449,9.06,73194.3,-0.47,-7.61,-6.35,0,*52
1488110440.53,8450,9.06,73218.8,-0.45,-7.61,-6.47,0,*5D
1488110441.75,8451,9.0,73208.3,-0.45,-7.61,-6.43,0,*58
1488110442.96,8452,9.06,73198.8,-0.45,-7.61,-6.47,0,*5F
1488110444.17,8453,9.06,73202.3,-0.45,-7.65,-6.55,0,*59
1488110445.39,8454,9.06,73198.0,-0.45,-7.73,-6.59,0,*55
1488110446.63,8455,9.0,73202.5,-0.47,-7.73,-6.59,0,*56
1488110447.86,8456,9.06,73210.5,-0.47,-7.95,-6.85,0,*5C
1488110449.09,8457,9.06,73206.5,-0.47,-7.95,-6.69,0,*5F
1488110450.3,8458,9.06,73200.0,-0.47,-7.87,-6.55,0,*5C
1488110451.53,8459,9.06,73188.0,-0.47,-7.95,-6.55,0,*5E
1488110452.76,8460,9.06,73186.0,-0.47,-8.03,-6.55,0,*54
1488110453.98,8461,9.06,73186.3,-0.45,-7.77,-6.31,0,*59
1488110455.19,8462,9.06,73188.3,-0.45,-7.73,-6.13,0,*5E
1488110456.42,8463,9.06,73198.8,-0.47,-7.87,-6.19,0,*5C
1488110457.64,8464,9.0,73202.0,-0.47,-8.45,-6.81,0,*5B
1488110458.83,8465,9.06,73202.8,-0.45,-8.21,-6.47,0,*50
1488110460.05,8466,9.06,73192.5,-0.47,-7.91,-6.05,0,*53
1488110461.25,8467,9.06,73188.5,-0.45,-7.91,-6.05,0,*50
1488110462.49,8468,9.06,73186.3,-0.45,-7.65,-5.81,0,*5B
1488110463.7,8469,9.06,73192.5,-0.45,-7.53,-5.69,0,*59
1488110464.94,8470,9.06,73196.0,-0.45,-7.61,-5.69,0,*50
1488110466.18,8471,9.06,73198.3,-0.45,-7.61,-5.69,0,*51
1488110467.42,8472,9.0,73192.5,-0.45,-7.65,-5.69,0,*56
1488110468.65,8473,9.06,73194.3,-0.43,-7.35,-5.47,0,*58
1488110469.91,8474,9.0,73184.8,-0.43,-7.31,-5.23,0,*59
1488110471.15,8475,9.06,73184.8,-0.43,-7.43,-5.39,0,*56
1488110472.35,8476,9.06,73178.3,-0.43,-7.49,-5.43,0,*52
1488110473.58,8477,9.0,73180.0,-0.39,-7.31,-5.35,0,*50
1488110474.82,8478,9.06,73190.0,-0.43,-7.43,-5.47,0,*52
1488110476.05,8479,9.06,73194.0,-0.39,-7.43,-5.43,0,*5A
1488110477.3,8480,9.06,73198.3,-0.39,-7.15,-5.07,0,*5F
1488110478.54,8481,9.06,73200.5,-0.39,-6.85,-4.89,0,*51
1488110479.8,8482,9.0,73206.3,-0.39,-6.93,-4.93,0,*5E
1488110481.01,8483,9.0,73204.8,-0.37,-6.73,-4.69,0,*5A
1488110482.23,8484,9.0,73200.8,-0.37,-6.77,-4.69,0,*59
1488110483.42,8485,9.06,73204.3,-0.37,-6.51,-4.53,0,*55
1488110484.61,8486,9.06,73210.8,-0.37,-6.59,-4.53,0,*5E
1488110485.85,8487,9.06,73216.5,-0.37,-6.93,-4.93,0,*55
1488110487.07,8488,9.0,73208.3,-0.37,-7.19,-5.23,0,*53
1488110488.29,8489,9.0,73202.8,-0.37,-7.19,-5.31,0,*51
1488110489.5,8490,9.06,73208.8,-0.35,-6.89,-4.99,0,*50
1488110490.73,8491,9.06,73186.5,-0.37,-7.05,-5.31,0,*55
1488110491.94,8492,9.0,73178.3,-0.37,-6.47,-4.77,0,*52
1488110493.19,8493,9.0,73180.8,-0.35,-6.81,-5.03,0,*59
1488110494.4,8494,9.0,73180.0,-0.37,-7.05,-5.43,0,*55
1488110495.63,8495,9.0,73178.0,-0.37,-7.01,-5.31,0,*55
1488110496.85,8496,9.06,73170.0,-0.37,-6.77,-5.23,0,*55
1488110498.07,8497,9.0,73170.0,-0.37,-6.73,-5.19,0,*59
1488110499.28,8498,9.0,73150.8,-0.37,-6.93,-5.43,0,*57
1488110500.49,8499,9.06,73166.8,-0.39,-6.77,-5.35,0,*53
1488110501.7,8500,9.06,73160.5,-0.39,-7.15,-5.97,0,*5F
1488110502.94,8501,9.06,73172.0,-0.37,-6.93,-5.73,0,*55
1488110504.18,8502,9.0,73158.0,-0.43,-6.77,-5.61,0,*5C
1488110505.42,8503,9.0,73152.8,-0.43,-6.81,-5.65,0,*50
1488110506.68,8504,9.0,73156.3,-0.43,-6.97,-5.89,0,*52
1488110507.93,8505,9.0,73172.3,-0.43,-6.63,-5.77,0,*59
1488110509.14,8506,9.0,73168.5,-0.45,-6.73,-5.81,0,*54
1488110510.35,8507,9.06,73156.5,-0.45,-7.01,-6.05,0,*5E
1488110511.57,8508,9.0,73160.5,-0.45,-7.11,-6.19,0,*5D
1488110512.8,8509,9.06,73168.3,-0.47,-6.85,-5.89,0,*58
1488110514.03,8510,9.0,73174.3,-0.47,-7.01,-6.13,0,*5D
1488110515.27,8511,9.06,73170.3,-0.47,-7.11,-6.19,0,*57
1488110516.52,8512,9.0,73170.8,-0.47,-7.11,-6.19,0,*54
1488110517.75,8513,9.0,73164.3,-0.47,-7.15,-6.19,0,*51
1488110519.0,8514,9.06,73166.0,-0.47,-7.27,-6.23,0,*5E
1488110520.23,8515,9.06,73172.8,-0.47,-7.39,-6.35,0,*57
1488110521.44,8516,9.06,73172.5,-0.47,-7.49,-6.31,0,*57
1488110522.68,8517,9.0,73160.3,-0.49,-7.65,-6.27,0,*51
1488110523.87,8518,9.0,73160.0,-0.49,-7.83,-6.47,0,*50
1488110525.1,8519,9.0,73162.0,-0.47,-7.91,-6.47,0,*5C
1488110526.32,8520,9.0,73150.0,-0.49,-7.83,-6.27,0,*5D
1488110527.55,8521,9.06,73178.0,-0.49,-7.91,-6.27,0,*5F
1488110528.74,8522,9.0,73174.8,-0.49,-8.21,-6.51,0,*59
1488110529.92,8523,9.06,73176.5,-0.53,-8.17,-6.39,0,*58
1488110531.1,8524,9.06,73172.0,-0.53,-8.29,-6.39,0,*52
1488110532.29,8525,9.0,73156.5,-0.53,-8.25,-6.31,0,*57
1488110533.5,8526,9.06,73174.5,-0.51,-8.33,-6.35,0,*55
1488110534.73,8527,9.0,73168.0,-0.51,-8.11,-6.05,0,*57
1488110535.97,8528,9.06,73178.5,-0.51,-8.11,-5.97,0,*50
1488110537.18,8529,9.06,73194.3,-0.53,-7.87,-5.65,0,*5E
1488110538.42,8530,9.0,73166.5,-0.53,-8.11,-5.85,0,*58
1488110539.63,8531,9.0,73166.5,-0.53,-7.87,-5.61,0,*53
1488110540.87,8532,9.0,73166.8,-0.55,-7.87,-5.61,0,*56
1488110542.13,8533,9.0,73176.8,-0.55,-7.43,-5.19,0,*50
1488110543.34,8534,9.0,73178.5,-0.53,-7.61,-5.35,0,*5F
1488110544.61,8535,9.0,73180.0,-0.55,-7.57,-5.31,0,*59
1488110545.83,8536,9.06,73176.0,-0.53,-7.23,-5.07,0,*5A
1488110547.06,8537,9.06,73182.0,-0.53,-6.93,-4.81,0,*5E
1488110548.3,8538,9.06,73162.5,-0.53,-7.31,-5.07,0,*57
1488110549.53,8539,9.06,73162.8,-0.55,-6.63,-4.53,0,*56
1488110550.77,8540,9.06,73160.3,-0.51,-6.63,-4.57,0,*58
1488110552.04,8541,9.06,73160.5,-0.51,-7.05,-5.07,0,*5C
1488110553.3,8542,9.06,73148.3,-0.51,-7.05,-5.07,0,*5F
1488110554.52,8543,9.06,73138.3,-0.49,-7.15,-5.31,0,*53
1488110555.79,8544,9.06,73146.0,-0.51,-7.57,-5.73,0,*5D
1488110556.99,8545,9.0,73156.3,-0.53,-7.49,-5.65,0,*56
1488110558.25,8546,9.06,73160.5,-0.55,-7.43,-5.77,0,*5A
1488110559.51,8547,9.0,73164.0,-0.55,-7.31,-5.61,0,*59
1488110560.72,8548,9.0,73172.5,-0.55,-7.19,-5.51,0,*5F
1488110561.95,8549,9.0,73178.0,-0.55,-7.05,-5.35,0,*51
1488110563.19,8550,9.0,73196.8,-0.55,-6.93,-5.35,0,*57
1488110564.43,8551,9.06,73194.5,-0.59,-6.93,-5.35,0,*5A
1488110565.65,8552,9.06,73196.3,-0.57,-6.81,-5.27,0,*57
1488110566.87,8553,9.06,73186.0,-0.57,-6.73,-5.23,0,*5F
1488110568.08,8554,9.06,73178.8,-0.57,-6.73,-5.23,0,*58
1488110569.29,8555,9.0,73178.3,-0.57,-6.69,-5.15,0,*57
1488110570.5,8556,9.0,73184.8,-0.57,-6.69,-5.15,0,*54
1488110571.74,8557,9.06,73192.8,-0.59,-6.69,-5.23,0,*5E
1488110572.93,8558,9.06,73192.3,-0.57,-6.85,-5.51,0,*58
1488110574.14,8559,9.06,73198.5,-0.59,-6.73,-5.39,0,*50
1488110575.35,8560,9.06,73198.8,-0.57,-6.69,-5.27,0,*50
1488110576.57,8561,9.06,73198.3,-0.57,-6.59,-5.23,0,*56
1488110577.79,8562,9.06,73188.5,-0.57,-6.59,-5.23,0,*55
1488110579.0,8563,9.06,73194.8,-0.59,-6.59,-5.35,0,*5D
1488110580.25,8564,9.06,73184.8,-0.59,-6.69,-5.27,0,*5A
1488110581.49,8565,9.06,73176.5,-0.59,-6.43,-5.03,0,*55
1488110582.74,8566,9.06,73178.3,-0.59,-6.47,-5.23,0,*50
1488110583.92,8567,9.0,73186.8,-0.61,-6.73,-5.39,0,*56
1488110585.14,8568,9.06,73194.5,-0.61,-6.51,-5.15,0,*57
1488110586.36,8569,9.0,73182.3,-0.61,-6.35,-5.07,0,*57
1488110587.57,8570,9.06,73190.5,-0.61,-6.39,-5.07,0,*53
1488110588.78,8571,9.06,73190.5,-0.61,-6.47,-5.19,0,*54
1488110590.0,8572,9.0,73196.3,-0.61,-6.73,-5.27,0,*5D
1488110591.22,8573,9.0,73190.3,-0.61,-6.59,-5.27,0,*54
1488110592.43,8574,9.06,73180.3,-0.61,-6.47,-5.15,0,*5D
1488110593.64,8575,9.06,73174.5,-0.61,-6.51,-5.19,0,*57
1488110594.86,8576,9.06,73180.0,-0.61,-6.51,-5.15,0,*58
1488110596.07,8577,9.06,73162.5,-0.61,-6.39,-5.15,0,*57
1488110597.29,8578,9.06,73180.0,-0.61,-6.35,-5.03,0,*53
1488110598.51,8579,9.06,73194.5,-0.61,-6.35,-4.93,0,*5A
1488110599.77,8580,9.0,73204.8,-0.59,-6.27,-4.85,0,*53
1488110600.98,8581,9.06,73208.5,-0.59,-6.05,-4.65,0,*5C
1488110602.17,8582,9.0,73204.8,-0.57,-6.13,-4.61,0,*52
1488110603.43,8583,9.06,73206.8,-0.59,-6.27,-4.77,0,*5D
1488110604.65,8584,9.06,73206.8,-0.59,-6.01,-4.61,0,*59
1488110605.83,8585,9.0,73202.0,-0.57,-6.05,-4.57,0,*57
1488110607.05,8586,9.06,73202.8,-0.59,-6.43,-4.99,0,*5A
1488110608.24,8587,9.0,73200.8,-0.57,-6.13,-4.65,0,*53
1488110609.45,8588,9.06,73202.0,-0.59,-6.05,-4.61,0,*51
1488110610.63,8589,9.06,73206.5,-0.57,-6.01,-4.49,0,*50
1488110611.87,8590,9.06,73206.8,-0.55,-5.85,-4.33,0,*58
1488110613.06,8591,9.06,73212.8,-0.53,-6.13,-4.53,0,*55
1488110614.29,8592,9.06,73218.5,-0.55,-6.31,-4.73,0,*52
1488110615.53,8593,9.0,73208.5,-0.55,-6.43,-4.73,0,*56
1488110616.74,8594,9.0,73200.0,-0.53,-6.55,-4.85,0,*59
1488110617.95,8595,9.06,73198.0,-0.55,-6.31,-4.61,0,*56
1488110619.13,8596,9.06,73198.0,-0.53,-6.69,-4.99,0,*59
1488110620.34,8597,9.06,73186.5,-0.53,-6.89,-5.11,0,*57
1488110621.55,8598,9.06,73176.8,-0.53,-6.81,-5.11,0,*50
1488110622.77,8599,9.0,73198.5,-0.55,-7.11,-5.35,0,*59
1488110624.03,8600,9.06,73204.5,-0.55,-6.93,-5.19,0,*5F
1488110625.27,8601,9.06,73210.5,-0.53,-7.01,-5.23,0,*5B
1488110626.49,8602,9.06,73216.5,-0.53,-6.81,-5.19,0,*58
1488110627.72,8603,9.0,73216.0,-0.55,-6.89,-5.11,0,*5F
1488110628.92,8604,9.06,73204.0,-0.55,-6.69,-4.99,0,*57
1488110630.16,8605,9.0,73200.3,-0.55,-6.89,-5.19,0,*51
1488110631.4,8606,9.06,73216.0,-0.53,-6.93,-5.31,0,*55
1488110632.64,8607,9.0,73216.0,-0.53,-6.93,-5.31,0,*54
1488110633.88,8608,9.06,73214.5,-0.55,-6.93,-5.35,0,*59
1488110635.12,8609,9.0,73210.5,-0.55,-6.81,-5.19,0,*55
1488110636.32,8610,9.06,73210.8,-0.55,-6.69,-4.99,0,*52
1488110637.54,8611,9.06,73208.0,-0.53,-6.77,-5.19,0,*53
1488110638.74,8612,9.0,73200.3,-0.55,-6.81,-4.99,0,*56
1488110640.01,8613,9.06,73200.3,-0.55,-7.05,-5.31,0,*59
1488110641.24,8614,9.0,73194.8,-0.55,-7.35,-5.51,0,*5B
1488110642.48,8615,9.0,73186.0,-0.53,-7.35,-5.61,0,*5F
1488110643.71,8616,9.06,73172.5,-0.55,-7.31,-5.39,0,*53
1488110644.94,8617,9.06,73176.8,-0.55,-7.35,-5.47,0,*5F
1488110646.17,8618,9.0,73168.0,-0.55,-7.31,-5.35,0,*51
1488110647.4,8619,9.0,73148.0,-0.55,-7.35,-5.47,0,*51
1488110648.67,8620,9.06,73150.5,-0.55,-7.61,-5.61,0,*5E
1488110649.91,8621,9.0,73150.5,-0.55,-7.57,-5.51,0,*59
1488110651.13,8622,9.06,73164.8,-0.57,-7.61,-5.55,0,*59
1488110652.39,8623,9.0,73156.8,-0.55,-7.95,-5.89,0,*50
1488110653.65,8624,9.06,73160.0,-0.59,-7.65,-5.65,0,*56
1488110654.92,8625,9.0,73154.5,-0.59,-7.73,-5.69,0,*5C
1488110656.14,8626,9.06,73150.5,-0.59,-7.53,-5.43,0,*55
1488110657.35,8627,9.06,73146.0,-0.57,-7.65,-5.55,0,*58
1488110658.62,8628,9.06,73148.3,-0.59,-7.73,-5.65,0,*5D
1488110659.89,8629,9.06,73164.5,-0.59,-7.39,-5.27,0,*54
1488110661.1,8630,9.0,73168.3,-0.59,-7.49,-5.35,0,*58
1488110662.34,8631,9.06,73164.5,-0.59,-7.49,-5.27,0,*5A
1488110663.61,8632,9.06,73166.8,-0.59,-7.27,-5.23,0,*55
1488110664.85,8633,9.06,73170.8,-0.59,-7.15,-5.03,0,*57
1488110666.06,8634,9.0,73172.8,-0.57,-7.05,-4.99,0,*5D
1488110667.28,8635,9.06,73168.3,-0.59,-7.53,-5.55,0,*50
1488110668.55,8636,9.0,73162.5,-0.59,-7.35,-5.27,0,*56
1488110669.79,8637,9.06,73166.3,-0.59,-7.15,-5.27,0,*55
1488110671.04,8638,9.06,73172.5,-0.59,-7.11,-5.23,0,*5A
1488110672.29,8639,9.06,73166.5,-0.59,-6.85,-5.03,0,*55
1488110673.53,8640,9.06,73164.5,-0.59,-6.69,-4.85,0,*56
1488110674.77,8641,9.06,73166.0,-0.57,-6.93,-5.23,0,*51
1488110676.04,8642,9.0,73160.0,-0.59,-6.97,-5.23,0,*58
1488110677.29,8643,9.06,73166.8,-0.59,-6.81,-5.15,0,*5B
1488110678.53,8644,9.06,73162.0,-0.59,-6.73,-4.89,0,*55
1488110679.78,8645,9.06,73166.5,-0.59,-6.19,-4.37,0,*5D
1488110681.02,8646,9.06,73168.0,-0.59,-5.93,-4.21,0,*58
1488110682.24,8647,9.06,73172.5,-0.57,-5.93,-4.25,0,*53
1488110683.45,8648,9.06,73176.5,-0.57,-6.19,-4.49,0,*57
1488110684.66,8649,9.06,73180.5,-0.55,-6.39,-4.61,0,*5C
1488110685.85,8650,9.0,73190.5,-0.53,-6.39,-4.61,0,*52
1488110687.06,8651,9.06,73192.3,-0.53,-6.51,-4.81,0,*53
1488110688.27,8652,9.06,73190.8,-0.53,-6.51,-4.73,0,*5D
1488110689.48,8653,9.06,73194.3,-0.53,-6.23,-4.53,0,*5B
1488110690.67,8654,9.06,73192.0,-0.53,-6.39,-4.57,0,*53
1488110691.88,8655,9.0,73188.5,-0.53,-6.23,-4.33,0,*5B
1488110693.11,8656,9.06,73186.3,-0.51,-5.85,-4.17,0,*53
1488110694.35,8657,9.0,73182.3,-0.51,-6.19,-4.41,0,*57
1488110695.54,8658,9.06,73188.5,-0.49,-6.05,-4.29,0,*52
1488110696.76,8659,9.06,73184.5,-0.51,-6.09,-4.29,0,*56
1488110697.98,8660,9.06,73192.8,-0.49,-5.93,-4.13,0,*5C
1488110699.16,8661,9.06,73190.5,-0.49,-5.97,-4.17,0,*5D
1488110700.37,8662,9.06,73192.3,-0.49,-6.27,-4.37,0,*54
1488110701.59,8663,9.06,73196.3,-0.47,-6.55,-4.65,0,*59
1488110702.82,8664,9.06,73194.3,-0.47,-6.55,-4.73,0,*59
1488110704.01,8665,9.06,73196.3,-0.45,-6.47,-4.53,0,*5B
1488110705.22,8666,9.0,73188.3,-0.45,-6.23,-4.25,0,*5B
1488110706.41,8667,9.06,73186.0,-0.45,-6.43,-4.49,0,*56
1488110707.61,8668,9.06,73190.3,-0.47,-6.47,-4.45,0,*53
1488110708.82,8669,9.0,73192.0,-0.47,-6.55,-4.53,0,*56
1488110710.0,8670,9.06,73200.5,-0.45,-6.05,-4.09,0,*56
1488110711.22,8671,9.06,73200.8,-0.45,-5.93,-3.95,0,*59
1488110712.42,8672,9.0,73188.8,-0.43,-6.39,-4.41,0,*51
1488110713.64,8673,9.06,73188.5,-0.43,-6.51,-4.57,0,*59
1488110714.86,8674,9.0,73176.5,-0.43,-6.51,-4.57,0,*5E
1488110716.07,8675,9.0,73170.0,-0.43,-6.31,-4.29,0,*50
1488110717.3,8676,9.06,73170.8,-0.39,-6.23,-4.17,0,*50
1488110718.52,8677,9.06,73192.5,-0.43,-6.51,-4.57,0,*5D
1488110719.77,8678,9.0,73172.3,-0.43,-6.63,-4.69,0,*5E
1488110721.0,8679,9.06,73190.3,-0.43,-6.69,-4.73,0,*5E
1488110722.21,8680,9.0,73176.8,-0.47,-6.59,-4.53,0,*5D
1488110723.4,8681,9.06,73174.5,-0.45,-6.55,-4.61,0,*53
1488110724.62,8682,9.06,73162.0,-0.43,-6.55,-4.61,0,*56
1488110725.82,8683,9.06,73170.5,-0.43,-6.43,-4.45,0,*56
1488110727.03,8684,9.0,73164.0,-0.43,-6.43,-4.49,0,*5D
1488110728.22,8685,9.06,73150.8,-0.45,-6.55,-4.49,0,*5D
1488110729.42,8686,9.0,73168.5,-0.45,-6.69,-4.73,0,*58
1488110730.63,8687,9.0,73172.5,-0.45,-6.69,-4.73,0,*59
1488110731.84,8688,9.0,73174.3,-0.47,-6.55,-4.49,0,*52
1488110733.05,8689,9.0,73162.3,-0.47,-6.43,-4.37,0,*5D
1488110734.27,8690,9.0,73176.8,-0.47,-6.35,-4.37,0,*54
1488110735.48,8691,9.06,73190.3,-0.47,-6.35,-4.49,0,*5C
1488110736.69,8692,9.0,73174.8,-0.47,-6.43,-4.53,0,*55
1488110737.88,8693,9.06,73176.5,-0.45,-6.35,-4.45,0,*50
1488110739.08,8694,9.0,73194.0,-0.47,-6.31,-4.45,0,*51
1488110740.29,8695,9.06,73188.3,-0.47,-6.13,-4.33,0,*51
1488110741.48,8696,9.0,73184.3,-0.45,-6.13,-4.25,0,*57
1488110742.69,8697,9.06,73194.5,-0.47,-6.13,-4.37,0,*57
1488110743.93,8698,9.0,73198.5,-0.47,-5.89,-4.25,0,*5B
1488110745.17,8699,9.0,73184.0,-0.47,-5.81,-4.21,0,*56
1488110746.39,8700,9.0,73200.5,-0.45,-5.69,-4.21,0,*53
1488110747.6,8701,9.0,73196.3,-0.45,-5.77,-4.21,0,*5D
1488110748.79,8702,9.0,73188.3,-0.45,-5.55,-3.95,0,*56
1488110750.01,8703,9.0,73182.8,-0.45,-5.31,-3.75,0,*5B
1488110751.26,8704,9.06,73192.0,-0.47,-5.31,-3.71,0,*5A
1488110752.48,8705,9.06,73188.3,-0.45,-5.69,-4.21,0,*56
1488110753.69,8706,9.0,73172.3,-0.45,-5.93,-4.49,0,*5E
1488110754.94,8707,9.0,73170.8,-0.47,-6.35,-5.03,0,*5D
1488110756.12,8708,9.06,73172.3,-0.45,-6.35,-4.99,0,*52
1488110757.33,8709,9.06,73168.3,-0.45,-5.89,-4.49,0,*5A
1488110758.57,8710,9.06,73178.0,-0.47,-5.69,-4.37,0,*57
1488110759.81,8711,9.06,73170.8,-0.47,-5.81,-4.61,0,*53
1488110761.05,8712,9.06,73158.0,-0.47,-5.77,-4.61,0,*59
1488110762.26,8713,9.06,73174.3,-0.47,-5.55,-4.45,0,*5E
1488110763.49,8714,9.0,73164.5,-0.47,-5.65,-4.49,0,*56
1488110764.76,8715,9.06,73174.3,-0.47,-5.93,-4.85,0,*5E
1488110766.0,8716,9.06,73166.0,-0.49,-5.85,-4.77,0,*59
1488110767.27,8717,9.06,73172.0,-0.51,-5.93,-4.89,0,*57
1488110768.51,8718,9.06,73158.0,-0.49,-5.69,-4.69,0,*5A
1488110769.77,8719,9.06,73150.5,-0.51,-5.61,-4.69,0,*5A
1488110771.03,8720,9.0,73148.3,-0.51,-5.73,-4.81,0,*55
1488110772.29,8721,9.0,73166.0,-0.51,-5.73,-4.89,0,*5C
1488110773.53,8722,9.06,73178.5,-0.53,-5.65,-4.73,0,*5F
1488110774.76,8723,9.0,73188.5,-0.53,-5.61,-4.73,0,*5A
1488110775.99,8724,9.0,73172.8,-0.53,-5.73,-4.93,0,*50
1488110777.22,8725,9.0,73178.5,-0.53,-5.61,-4.73,0,*5C
1488110778.48,8726,9.06,73158.3,-0.55,-5.65,-4.93,0,*53
1488110779.74,8727,9.06,73140.3,-0.55,-5.77,-5.07,0,*5D
1488110780.99,8728,9.0,73150.8,-0.55,-5.73,-4.93,0,*5A
1488110782.23,8729,9.06,73162.5,-0.55,-5.47,-4.73,0,*52
1488110783.44,8730,9.0,73168.3,-0.57,-5.51,-4.73,0,*5F
1488110784.62,8731,9.06,73180.3,-0.57,-5.43,-4.65,0,*5A
1488110785.86,8732,9.06,73192.5,-0.59,-5.51,-4.73,0,*53
1488110787.08,8733,9.0,73206.0,-0.59,-5.39,-4.65,0,*5B
1488110788.32,8734,9.06,73212.8,-0.59,-5.27,-4.61,0,*57
1488110789.57,8735,9.06,73210.5,-0.59,-5.23,-4.57,0,*57
1488110790.78,8736,9.06,73188.0,-0.57,-5.23,-4.57,0,*5A
1488110792.03,8737,9.06,73190.8,-0.59,-5.15,-4.61,0,*55
1488110793.29,8738,9.06,73192.3,-0.59,-5.27,-4.77,0,*5C
1488110794.53,8739,9.0,73182.3,-0.59,-5.03,-4.37,0,*5F
1488110795.77,8740,9.06,73186.5,-0.59,-4.89,-4.33,0,*56
1488110796.98,8741,9.06,73186.3,-0.59,-4.99,-4.37,0,*52
1488110798.21,8742,9.06,73192.5,-0.59,-4.89,-4.45,0,*55
1488110799.43,8743,9.06,73192.5,-0.61,-5.03,-4.53,0,*5B
1488110800.63,8744,9.06,73180.8,-0.61,-4.93,-4.41,0,*57
1488110801.84,8745,9.0,73184.0,-0.61,-4.89,-4.41,0,*5D
1488110803.04,8746,9.06,73190.5,-0.61,-4.81,-4.41,0,*56
1488110804.25,8747,9.06,73192.8,-0.61,-4.89,-4.41,0,*5F
1488110805.46,8748,9.06,73194.8,-0.61,-4.89,-4.49,0,*58
1488110806.66,8749,9.0,73196.3,-0.61,-4.69,-4.41,0,*5F
1488110807.89,8750,9.06,73188.0,-0.63,-4.69,-4.37,0,*54
1488110809.1,8751,9.0,73182.3,-0.61,-4.89,-4.61,0,*5A
1488110810.31,8752,9.0,73174.0,-0.61,-5.03,-4.53,0,*5B
1488110811.55,8753,9.0,73174.5,-0.63,-5.03,-4.65,0,*5D
1488110812.82,8754,9.06,73176.8,-0.63,-5.15,-4.69,0,*51
1488110814.06,8755,9.06,73172.0,-0.63,-5.03,-4.65,0,*5B
1488110815.33,8756,9.06,73186.5,-0.63,-5.15,-4.69,0,*53
1488110816.56,8757,9.06,73178.5,-0.61,-5.07,-4.77,0,*5C
1488110817.79,8758,9.06,73176.3,-0.63,-4.93,-4.61,0,*5A
1488110819.02,8759,9.06,73174.8,-0.63,-4.81,-4.49,0,*52
1488110820.25,8760,9.06,73170.5,-0.67,-4.93,-4.65,0,*51
1488110821.52,8761,9.0,73168.3,-0.67,-5.07,-4.73,0,*5B
1488110822.73,8762,9.06,73180.3,-0.69,-4.89,-4.61,0,*52
1488110823.94,8763,9.06,73180.0,-0.69,-5.23,-4.99,0,*55
1488110825.15,8764,9.0,73186.3,-0.69,-5.23,-4.99,0,*52
1488110826.39,8765,9.06,73168.3,-0.69,-5.03,-4.73,0,*55
1488110827.6,8766,9.0,73160.3,-0.67,-4.41,-4.21,0,*58
1488110828.81,8767,9.06,73162.0,-0.67,-4.53,-4.33,0,*59
1488110830.01,8768,9.06,73166.3,-0.69,-4.37,-4.01,0,*5B
1488110831.23,8769,9.06,73172.3,-0.67,-4.29,-3.91,0,*55
1488110832.44,8770,9.06,73174.8,-0.69,-4.89,-4.61,0,*51
1488110833.64,8771,9.06,73174.5,-0.67,-4.65,-4.33,0,*5B
1488110834.87,8772,9.0,73174.5,-0.67,-4.69,-4.33,0,*54
1488110836.06,8773,9.0,73176.8,-0.69,-4.49,-4.21,0,*5A
1488110837.27,8774,9.06,73178.3,-0.67,-4.33,-3.95,0,*56
1488110838.48,8775,9.06,73182.8,-0.67,-4.33,-3.79,0,*55
1488110839.69,8776,9.06,73180.5,-0.67,-4.41,-4.05,0,*5F
1488110840.9,8777,9.06,73186.0,-0.67,-4.41,-3.95,0,*50
1488110842.09,8778,9.06,73186.3,-0.61,-4.25,-3.75,0,*55
1488110843.29,8779,9.06,73184.0,-0.63,-4.37,-3.75,0,*55
1488110844.5,8780,9.06,73180.3,-0.61,-4.17,-3.63,0,*54
1488110845.72,8781,9.0,73182.3,-0.63,-4.29,-3.71,0,*59
1488110846.94,8782,9.06,73186.3,-0.63,-4.65,-4.13,0,*51
1488110848.14,8783,9.06,73184.5,-0.61,-4.77,-4.13,0,*51
1488110849.34,8784,9.06,73188.5,-0.61,-4.61,-4.01,0,*52
1488110850.55,8785,9.06,73188.5,-0.61,-4.25,-3.47,0,*56
1488110851.78,8786,9.06,73190.5,-0.59,-4.13,-3.43,0,*5F
1488110852.98,8787,9.06,73194.5,-0.57,-4.25,-3.55,0,*52
1488110854.18,8788,9.06,73194.3,-0.57,-4.37,-3.67,0,*5F
1488110855.4,8789,9.06,73192.8,-0.59,-4.57,-3.95,0,*5B
1488110856.6,8790,9.06,73190.0,-0.57,-4.73,-4.13,0,*52
1488110857.81,8791,9.06,73198.0,-0.59,-4.65,-4.09,0,*51
1488110859.05,8792,9.06,73198.5,-0.59,-4.25,-3.59,0,*54
1488110860.23,8793,9.06,73194.5,-0.57,-4.37,-3.83,0,*5F
1488110861.44,8794,9.06,73196.0,-0.55,-4.33,-3.79,0,*5B
1488110862.65,8795,9.06,73200.3,-0.55,-4.53,-3.91,0,*5A
1488110863.83,8796,9.06,73200.8,-0.53,-4.33,-3.79,0,*5F
1488110865.07,8797,9.06,73192.5,-0.55,-4.73,-4.21,0,*56
1488110866.29,8798,9.06,73188.3,-0.55,-4.69,-4.05,0,*54
1488110867.49,8799,9.06,73198.0,-0.55,-4.45,-3.91,0,*51
1488110868.67,8800,9.0,73192.3,-0.53,-4.61,-4.17,0,*57
1488110869.89,8801,9.06,73194.5,-0.55,-4.93,-4.41,0,*5E
1488110871.13,8802,9.06,73198.3,-0.55,-5.07,-4.57,0,*56
1488110872.35,8803,9.06,73206.5,-0.55,-4.69,-4.17,0,*5A
1488110873.57,8804,9.06,73194.5,-0.55,-4.61,-4.21,0,*50
1488110874.77,8805,9.06,73190.5,-0.55,-4.57,-4.09,0,*5E
1488110875.98,8806,9.0,73182.0,-0.55,-4.33,-3.83,0,*5A
1488110877.19,8807,9.06,73184.5,-0.55,-4.29,-3.79,0,*55
1488110878.37,8808,9.06,73188.5,-0.53,-4.41,-3.83,0,*57
1488110879.55,8809,9.0,73190.0,-0.53,-4.41,-3.91,0,*55
1488110880.73,8810,9.06,73188.8,-0.53,-4.53,-4.05,0,*54
1488110881.94,8811,9.06,73180.8,-0.51,-4.41,-3.91,0,*5E
1488110883.14,8812,9.06,73176.3,-0.53,-4.29,-3.67,0,*58
1488110884.33,8813,9.06,73178.5,-0.53,-3.83,-3.31,0,*5D
1488110885.52,8814,9.0,73166.0,-0.53,-3.95,-3.39,0,*55
1488110886.75,8815,9.0,73164.5,-0.51,-3.71,-3.15,0,*52
1488110887.94,8816,9.0,73168.3,-0.49,-4.05,-3.35,0,*5E
1488110889.17,8817,9.06,73176.8,-0.51,-4.05,-3.47,0,*53
1488110890.38,8818,9.06,73178.8,-0.49,-4.17,-3.51,0,*51
1488110891.57,8819,9.06,73180.8,-0.49,-4.29,-3.75,0,*5B
1488110892.75,8820,9.06,73182.0,-0.49,-4.53,-4.05,0,*5C
1488110893.94,8821,9.06,73184.3,-0.49,-4.65,-4.05,0,*58
1488110895.12,8822,9.0,73190.3,-0.49,-4.41,-3.87,0,*50
1488110896.35,8823,9.06,73190.0,-0.47,-4.21,-3.47,0,*55
1488110897.59,8824,9.0,73186.8,-0.47,-4.21,-3.59,0,*5D
1488110898.79,8825,9.0,73190.3,-0.47,-4.37,-3.83,0,*5C
1488110899.97,8826,9.06,73198.5,-0.45,-4.37,-3.83,0,*5D
1488110901.2,8827,9.06,73196.8,-0.47,-4.77,-4.21,0,*55
1488110902.41,8828,9.0,73184.8,-0.45,-4.73,-4.21,0,*5C
1488110903.64,8829,9.06,73182.3,-0.47,-4.77,-4.25,0,*5F
1488110904.86,8830,9.0,73182.3,-0.47,-4.85,-4.33,0,*5D
1488110906.09,8831,9.06,73180.3,-0.47,-4.77,-4.25,0,*56
1488110907.3,8832,9.0,73172.8,-0.45,-5.03,-4.45,0,*53
1488110908.5,8833,9.06,73162.5,-0.47,-4.99,-4.33,0,*53
1488110909.7,8834,9.06,73160.3,-0.47,-4.99,-4.33,0,*54
1488110910.91,8835,9.0,73176.5,-0.49,-4.77,-4.25,0,*5C
1488110912.1,8836,9.06,73184.0,-0.49,-4.57,-4.05,0,*5F
1488110913.31,8837,9.0,73170.0,-0.49,-4.81,-4.25,0,*57
1488110914.51,8838,9.06,73170.3,-0.49,-4.69,-4.17,0,*5F
1488110915.72,8839,9.0,73162.0,-0.45,-4.77,-4.21,0,*58
1488110916.93,8840,9.0,73158.8,-0.47,-4.65,-4.21,0,*57
1488110918.14,8841,9.06,73162.8,-0.47,-4.61,-4.21,0,*52
1488110919.34,8842,9.06,73158.3,-0.47,-4.45,-3.87,0,*5C
1488110920.58,8843,9.06,73162.0,-0.47,-4.21,-3.59,0,*5C
1488110921.77,8844,9.06,73160.0,-0.49,-4.65,-4.13,0,*5C
1488110922.98,8845,9.0,73150.8,-0.49,-4.89,-4.49,0,*50
1488110924.24,8846,9.06,73138.0,-0.51,-5.19,-4.77,0,*5F
1488110925.48,8847,9.06,73146.8,-0.49,-5.19,-4.77,0,*57